[[{"header":{"parameterUnit":"m.s-1","parameterCategory":1,"la1":30.2992,"la2":30.254,"lo1":-89.0895,"lo2":-89.0443,"dy":0.0025,"dx":0.0025,"nx":19,"ny":19,"refTime":"2026-05-11T21:00:00:Z","depth":0,"parameterNumber":2,"parameterNumberName":"U-component_of_WINDS"},"data":[0,0,0,-0.4439,-0.4441,-0.4536,-0.4537,-0.4674,-0.4675,0,0,0,0,0,0,0,0,0,0,0,-0.4416,-0.4417,-0.4439,-0.4441,-0.4536,-0.4537,-0.4673,-0.4675,0,0,0,0,0,0,0,0,0,0,0,-0.4416,-0.4417,-0.4418,-0.4442,-0.4536,-0.4537,-0.4673,-0.4597,0,0,0,0,0,0,0,0,0,0,-0.4502,-0.4485,-0.4417,-0.4418,-0.4442,-0.4536,-0.4537,-0.4593,-0.4602,-0.4636,0,-0.4664,0,-0.4672,-0.4685,-0.4685,0,0,0,-0.4438,-0.4478,-0.4498,-0.4418,-0.4443,-0.4536,-0.4493,-0.4598,-0.4607,-0.4647,-0.4666,-0.4671,-0.4674,-0.4686,-0.4686,-0.4887,-0.4888,0,0,-0.4433,-0.4437,-0.4492,-0.4505,-0.4487,-0.449,-0.4496,-0.4603,-0.4625,-0.4666,-0.4674,-0.4676,-0.4687,-0.4688,-0.4886,-0.4887,0,0,0,-0.442,-0.4434,-0.4451,-0.45,-0.4515,-0.4492,-0.4499,-0.4621,-0.4626,-0.4675,-0.4678,-0.4687,-0.4689,-0.4884,-0.4886,-0.4944,0,0,0,-0.4417,-0.4426,-0.4449,-0.4452,-0.4514,-0.4568,-0.4514,-0.4618,-0.463,-0.4677,-0.4687,-0.4691,-0.4883,-0.4885,-0.494,-0.4972,0,0,0,-0.4408,-0.4425,-0.444,-0.4452,-0.4493,-0.4567,-0.4578,-0.4621,-0.4632,-0.4685,-0.4691,-0.4882,-0.4885,-0.4936,-0.4966,-0.5028,0,0,0,-0.4401,-0.449,-0.4441,-0.4541,-0.4492,-0.46,-0.4577,-0.4658,-0.471,-0.4688,-0.4883,-0.4886,-0.4935,-0.4962,-0.5024,-0.5083,-0.5107,0,0,-0.4516,-0.4504,-0.4563,-0.4522,-0.4639,-0.4585,-0.4712,-0.4757,-0.476,-0.4845,-0.485,-0.4941,-0.4966,-0.5027,-0.5234,-0.5253,0,0,0,-0.4601,-0.4644,-0.4674,-0.4722,-0.4757,-0.4791,-0.4816,-0.4833,-0.4905,-0.4803,-0.4979,-0.4993,-0.5029,-0.5058,-0.5074,-0.5107,-0.4898,-0.4898,-0.4898,-0.4771,-0.4768,-0.4866,-0.4875,-0.4923,-0.4947,-0.4988,-0.5016,-0.4999,-0.5041,-0.5067,-0.5193,-0.5226,-0.5238,-0.5272,-0.5095,-0.5095,-0.5096,-0.5096,-0.4942,-0.5004,-0.4978,-0.5065,-0.5063,-0.5137,-0.5165,-0.5151,-0.5223,-0.5172,-0.5204,-0.5152,-0.5259,-0.5289,-0.51,-0.5099,-0.5099,-0.5098,-0.5098,-0.5056,-0.5085,-0.5102,-0.5174,-0.5229,-0.5236,-0.5305,-0.53,-0.5296,-0.5327,-0.5357,-0.5356,-0.5358,-0.5341,-0.5341,-0.5342,-0.5342,-0.5342,-0.5343,-0.5169,-0.5187,-0.5244,-0.5289,-0.5321,-0.5362,-0.5388,-0.542,-0.5455,-0.5447,-0.5447,-0.543,-0.5268,-0.5229,-0.535,-0.5348,-0.5348,-0.5347,-0.5346,-0.535,-0.5308,-0.5397,-0.5429,-0.5482,-0.554,-0.5531,-0.5598,-0.5624,-0.5659,-0.5634,-0.5514,-0.5503,-0.549,-0.5459,-0.5631,-0.5631,-0.5631,-0.5631,-0.5449,-0.5441,-0.5533,-0.5584,-0.5634,-0.5635,-0.5741,-0.5763,-0.578,-0.5797,-0.577,-0.5727,-0.5714,-0.5711,-0.5693,-0.5664,-0.5885,-0.5885,-0.5885,-0.5562,-0.5559,-0.5649,-0.5661,-0.5703,-0.574,-0.5841,-0.5904,-0.5914,-0.5896,-0.5811,-0.58,-0.573,-0.5706,-0.5689,-0.5662,-0.5608,0,0]},{"header":{"parameterUnit":"m.s-1","parameterCategory":1,"la1":30.2992,"la2":30.254,"lo1":-89.0895,"lo2":-89.0443,"dy":0.0025,"dx":0.0025,"nx":19,"ny":19,"refTime":"2026-05-11T21:00:00:Z","depth":0,"parameterNumber":3,"parameterNumberName":"V-component_of_WINDS"},"data":[0,0,0,-7.1389,-7.139,-7.1389,-7.1389,-7.1433,-7.1434,0,0,0,0,0,0,0,0,0,0,0,-7.1416,-7.1417,-7.1389,-7.139,-7.1389,-7.1389,-7.1433,-7.1434,0,0,0,0,0,0,0,0,0,0,0,-7.1415,-7.1417,-7.1418,-7.139,-7.1389,-7.1389,-7.1433,-7.1417,0,0,0,0,0,0,0,0,0,0,-7.141,-7.1461,-7.1416,-7.1418,-7.139,-7.1389,-7.1389,-7.1416,-7.1418,-7.1452,0,-7.1489,0,-7.1462,-7.144,-7.144,0,0,0,-7.137,-7.1459,-7.1435,-7.1418,-7.139,-7.1389,-7.1384,-7.1417,-7.142,-7.1456,-7.1489,-7.149,-7.1463,-7.144,-7.1441,-7.17,-7.1702,0,0,-7.137,-7.143,-7.1433,-7.1438,-7.144,-7.1384,-7.1384,-7.1418,-7.1458,-7.1489,-7.149,-7.1464,-7.1441,-7.1441,-7.1698,-7.17,0,0,0,-7.1384,-7.1431,-7.1405,-7.1437,-7.1434,-7.1385,-7.1384,-7.1457,-7.1443,-7.149,-7.1464,-7.1441,-7.1442,-7.1695,-7.1699,-7.1861,0,0,0,-7.1383,-7.1439,-7.1406,-7.1443,-7.1434,-7.1445,-7.1424,-7.1441,-7.1443,-7.1464,-7.1441,-7.1443,-7.1693,-7.1697,-7.1851,-7.1928,0,0,0,-7.1407,-7.1441,-7.145,-7.1446,-7.1448,-7.1443,-7.1431,-7.144,-7.1428,-7.144,-7.1443,-7.1691,-7.1696,-7.1843,-7.1914,-7.2013,0,0,0,-7.145,-7.1596,-7.1454,-7.1606,-7.1448,-7.1544,-7.143,-7.1498,-7.1528,-7.1442,-7.1693,-7.1698,-7.184,-7.1905,-7.2004,-7.2107,-7.2155,0,0,-7.1668,-7.1624,-7.1709,-7.1582,-7.1718,-7.1539,-7.1699,-7.1669,-7.1616,-7.1675,-7.1681,-7.1855,-7.1913,-7.2011,-7.2407,-7.2447,0,0,0,-7.1798,-7.186,-7.1883,-7.1913,-7.1894,-7.1883,-7.1823,-7.1812,-7.1858,-7.1659,-7.1916,-7.1948,-7.2004,-7.205,-7.2083,-7.2126,-7.1722,-7.1722,-7.1721,-7.2192,-7.2115,-7.225,-7.2173,-7.2204,-7.214,-7.2158,-7.2132,-7.2046,-7.2109,-7.2126,-7.2375,-7.2432,-7.2456,-7.2502,-7.2174,-7.2175,-7.2175,-7.2176,-7.2502,-7.2577,-7.2459,-7.2547,-7.2465,-7.2539,-7.2483,-7.242,-7.2476,-7.2356,-7.2401,-7.2276,-7.2501,-7.2538,-7.2187,-7.2185,-7.2184,-7.2182,-7.2182,-7.2751,-7.2773,-7.2757,-7.2791,-7.2828,-7.2745,-7.2804,-7.2728,-7.2657,-7.2701,-7.271,-7.2707,-7.2694,-7.2711,-7.2712,-7.2713,-7.2713,-7.2714,-7.2714,-7.3016,-7.2991,-7.305,-7.3041,-7.305,-7.3052,-7.2989,-7.2996,-7.2984,-7.2924,-7.2923,-7.2832,-7.2538,-7.2465,-7.2728,-7.2725,-7.2724,-7.2722,-7.2721,-7.3358,-7.3268,-7.3359,-7.3368,-7.335,-7.3391,-7.3292,-7.3313,-7.3308,-7.334,-7.3238,-7.3033,-7.2984,-7.2957,-7.2896,-7.3254,-7.3254,-7.3254,-7.3254,-7.3567,-7.3534,-7.3609,-7.3628,-7.3638,-7.3558,-7.3664,-7.3617,-7.3554,-7.3546,-7.3484,-7.3397,-7.3373,-7.3337,-7.3302,-7.3244,-7.3683,-7.3683,-7.3684,-7.3773,-7.3737,-7.3842,-7.3777,-7.3758,-7.3743,-7.384,-7.3868,-7.3778,-7.3699,-7.3538,-7.352,-7.3379,-7.3337,-7.3255,-7.3202,-7.3094,0,0]}]]